Weather History for Salina, KS

Change the Weather History Date:

Tuesday, April 16, 2013

  Actual Average Record
Temperature  
Mean Temperature 44 °F 55 °F  
Max Temperature 48 °F 67 °F 90 °F (1937)
Min Temperature 40 °F 43 °F 20 °F (1953)
Degree Days  
Heating Degree Days 21 10  
Month to date heating degree days 252 202  
Since 1 July heating degree days 4596 4652  
Cooling Degree Days 0 1  
Month to date cooling degree days 2 8  
Year to date cooling degree days 2 10  
Moisture  
Dew Point 28 °F    
Average Humidity 54    
Maximum Humidity 65    
Minimum Humidity 42    
Precipitation  
Precipitation T in 0.10 in 0.87 in (1969)
Month to date precipitation 1.01 1.51  
Year to date precipitation 4.90 5.70  
Sea Level Pressure  
Sea Level Pressure 30.08 in    
Wind  
Wind Speed 13 mph (NE)    
Max Wind Speed 21 mph    
Max Gust Speed 26 mph    
Visibility 10 miles    
Events Rain    
T = Trace of Precipitation, MM = Missing Value Source: NWS Daily Summary

Daily Weather History Graph

Daily Weather History Graph

Search for Another Location

Airport:

Trip Planner

Search our weather history database for the weather conditions in past years. The results will help you decide how hot, cold, wet, or windy it might be!

Date:

Astronomy

Apr. 16, 2013 Rise Set
Actual Time 6:52 AM CDT 8:08 PM CDT
Civil Twilight 6:24 AM CDT 8:36 PM CDT
Nautical Twilight 5:51 AM CDT 9:09 PM CDT
Astronomical Twilight 5:17 AM CDT 9:44 PM CDT
Moon 11:13 AM CDT (4/16) 1:05 AM CDT (4/16)
Length of Visible Light 14h 11m
Length of Day
13h 16m
Waxing Crescent, 33% of the Moon is Illuminated
Apr 16
Waxing Crescent
Apr 18
First Quarter
Apr 25
Full
May 2
Last Quarter
May 9
New

Hourly Weather History & Observations

Time (CDT) Temp. Windchill Dew Point Humidity Pressure Visibility Wind Dir Wind Speed Gust Speed Precip Events Conditions
12:53 AM 43.0 °F 37.2 °F 27.0 °F 53% 29.98 in 10.0 mi NE 10.4 mph 19.6 mph N/A   Clear
1:53 AM 41.0 °F 36.4 °F 28.0 °F 60% 30.03 in 10.0 mi NNE 6.9 mph - N/A   Clear
2:53 AM 41.0 °F 35.2 °F 28.9 °F 62% 30.05 in 10.0 mi NNE 9.2 mph - N/A   Clear
3:53 AM 41.0 °F 34.3 °F 28.9 °F 62% 30.06 in 10.0 mi NNE 11.5 mph - N/A   Overcast
4:53 AM 42.1 °F 34.9 °F 30.0 °F 62% 30.07 in 10.0 mi NNE 13.8 mph 21.9 mph N/A   Overcast
5:53 AM 41.0 °F 33.1 °F 30.0 °F 65% 30.09 in 10.0 mi NE 15.0 mph - N/A   Overcast
6:53 AM 41.0 °F 32.5 °F 30.2 °F 65% 30.11 in 10.0 mi NE 17.3 mph 23.0 mph N/A Rain Light Rain
7:53 AM 41.0 °F 34.3 °F 26.1 °F 55% 30.13 in 10.0 mi NNE 11.5 mph 20.7 mph 0.00 in   Overcast
8:53 AM 41.0 °F 32.8 °F 27.0 °F 57% 30.15 in 10.0 mi NE 16.1 mph 20.7 mph N/A   Overcast
9:53 AM 42.1 °F 34.9 °F 27.0 °F 55% 30.15 in 10.0 mi NE 13.8 mph - 0.00 in   Overcast
10:53 AM 43.0 °F 35.1 °F 28.0 °F 56% 30.15 in 10.0 mi NE 17.3 mph 21.9 mph N/A   Overcast
11:53 AM 43.0 °F 35.7 °F 27.0 °F 53% 30.16 in 10.0 mi NE 15.0 mph 20.7 mph N/A   Overcast
12:53 PM 45.0 °F 38.2 °F 26.1 °F 48% 30.14 in 10.0 mi NE 15.0 mph 21.9 mph N/A   Overcast
1:53 PM 46.0 °F 40.6 °F 27.0 °F 47% 30.12 in 10.0 mi NE 11.5 mph 23.0 mph N/A   Overcast
2:53 PM 46.0 °F 39.6 °F 27.0 °F 47% 30.09 in 10.0 mi NE 15.0 mph - N/A   Overcast
3:53 PM 46.0 °F 39.9 °F 27.0 °F 47% 30.08 in 10.0 mi NE 13.8 mph 20.7 mph N/A   Overcast
4:53 PM 46.9 °F - 27.0 °F 46% 30.06 in 10.0 mi ENE 11.5 mph - N/A   Overcast
5:53 PM 48.0 °F - 27.0 °F 44% 30.05 in 10.0 mi ENE 15.0 mph 18.4 mph N/A   Overcast
6:53 PM 46.9 °F - 27.0 °F 46% 30.04 in 10.0 mi East 16.1 mph 23.0 mph N/A   Overcast
7:53 PM 46.9 °F - 28.9 °F 50% 30.05 in 10.0 mi East 11.5 mph - N/A   Overcast
8:53 PM 46.0 °F 41.4 °F 28.9 °F 51% 30.05 in 10.0 mi East 9.2 mph - N/A   Overcast
9:53 PM 46.0 °F 41.4 °F 30.0 °F 54% 30.06 in 10.0 mi East 9.2 mph - N/A   Overcast
10:53 PM 46.0 °F 41.0 °F 30.9 °F 56% 30.08 in 10.0 mi East 10.4 mph - N/A   Overcast
11:53 PM 44.1 °F 39.0 °F 35.1 °F 71% 30.05 in 10.0 mi ENE 9.2 mph - 0.00 in Rain Light Rain